Location: Newark
(44.6768°N, 22.5302°E)
Time: 13:01:18
(UTC+00:00)

AO-92 - Pass Details

Date: 29 June 2022
Orbit: 469 x 481 km, 97.4° (Epoch: 17 August)

Event Time Altitude Azimuth Distance (km) Brightness Sun altitude
Exits shadow 20:36:34 39° 178° (S) 728 ? -17.1°
Maximum altitude 20:37:46 78° 257° (WSW) 495 ? -17.2°
Drops below altitude 10° 20:41:21 10° 345° (NNW) 1,666 ? -17.5°
Sets 20:43:26 0° 347° (NNW) 2,553 ? -17.6°
